Time,TemperatureF,DewpointF,PressureIn,WindDirection,WindDirectionDegrees,WindSpeedMPH,WindSpeedGustMPH,Humidity,HourlyPrecipIn,Conditions,Clouds,dailyrainin,SoftwareType,DateUTC
2013-12-29 00:02:00,47.3,28.6,29.99,North,360,3.2,4.2,48,0.00,,,0.00,VISReader,2013-12-29 07:02:00,
2013-12-29 00:07:00,47.1,28.9,29.99,North,360,3.2,3.7,49,0.00,,,0.00,VISReader,2013-12-29 07:07:00,
2013-12-29 00:12:00,47.1,28.9,29.99,NNE,22,3.7,3.7,49,0.00,,,0.00,VISReader,2013-12-29 07:12:00,
2013-12-29 00:17:00,47.3,29.1,29.99,NNW,337,4.2,4.2,49,0.00,,,0.00,VISReader,2013-12-29 07:17:00,
2013-12-29 00:23:00,47.7,29.5,29.99,North,360,4.2,5.3,49,0.00,,,0.00,VISReader,2013-12-29 07:23:00,
2013-12-29 00:28:00,47.7,29.0,29.99,NNE,22,3.2,5.3,48,0.00,,,0.00,VISReader,2013-12-29 07:28:00,
2013-12-29 00:33:00,47.3,28.6,29.99,NNE,22,2.7,4.7,48,0.00,,,0.00,VISReader,2013-12-29 07:33:00,
2013-12-29 00:38:00,46.6,28.0,29.99,NE,45,1.7,3.2,48,0.00,,,0.00,VISReader,2013-12-29 07:38:00,
2013-12-29 00:43:00,46.2,27.6,29.99,NNW,337,2.7,2.7,48,0.00,,,0.00,VISReader,2013-12-29 07:43:00,
2013-12-29 00:49:00,46.2,27.6,29.99,NE,45,2.2,2.7,48,0.00,,,0.00,VISReader,2013-12-29 07:49:00,
2013-12-29 00:54:00,46.0,27.9,29.98,NE,45,3.2,3.7,49,0.00,,,0.00,VISReader,2013-12-29 07:54:00,
2013-12-29 00:59:00,46.8,27.6,29.98,East,90,3.7,4.2,47,0.00,,,0.00,VISReader,2013-12-29 07:59:00,
2013-12-29 01:04:00,47.3,28.1,29.98,ENE,67,4.7,4.7,47,0.00,,,0.00,VISReader,2013-12-29 08:04:00,
2013-12-29 01:09:00,48.0,28.2,29.98,NE,45,4.7,5.3,46,0.00,,,0.00,VISReader,2013-12-29 08:09:00,
2013-12-29 01:14:00,48.0,28.2,29.98,NNE,22,3.7,5.3,46,0.00,,,0.00,VISReader,2013-12-29 08:14:00,
2013-12-29 01:19:00,47.7,27.4,29.98,WNW,292,2.7,4.2,45,0.00,,,0.00,VISReader,2013-12-29 08:19:00,
2013-12-29 01:25:00,47.3,27.0,29.98,NW,315,1.7,3.7,45,0.00,,,0.00,VISReader,2013-12-29 08:25:00,
2013-12-29 01:30:00,46.2,27.6,29.98,South,180,1.7,2.7,48,0.00,,,0.00,VISReader,2013-12-29 08:30:00,
2013-12-29 01:35:00,45.5,28.4,29.98,SSE,157,4.2,4.2,51,0.00,,,0.00,VISReader,2013-12-29 08:35:00,
2013-12-29 01:40:00,45.1,28.5,29.98,ESE,112,3.2,6.3,52,0.00,,,0.00,VISReader,2013-12-29 08:40:00,
2013-12-29 01:45:00,46.4,28.3,29.98,NE,45,1.7,6.3,49,0.00,,,0.00,VISReader,2013-12-29 08:45:00,
2013-12-29 01:50:00,47.3,26.0,29.98,NW,315,4.2,4.7,43,0.00,,,0.00,VISReader,2013-12-29 08:50:00,
2013-12-29 01:55:00,46.8,29.2,29.98,South,180,0.0,4.7,50,0.00,,,0.00,VISReader,2013-12-29 08:55:00,
2013-12-29 02:00:00,44.4,33.0,29.98,South,180,4.2,4.7,64,0.00,,,0.00,VISReader,2013-12-29 09:00:00,
2013-12-29 02:08:00,44.2,32.8,29.97,SSE,157,4.7,4.7,64,0.00,,,0.00,VISReader,2013-12-29 09:08:00,
2013-12-29 02:13:00,45.0,29.8,29.97,NNW,337,1.7,6.3,55,0.00,,,0.00,VISReader,2013-12-29 09:13:00,
2013-12-29 02:18:00,45.3,30.1,29.98,South,180,1.7,6.3,55,0.00,,,0.00,VISReader,2013-12-29 09:18:00,
2013-12-29 02:23:00,43.5,33.3,29.98,South,180,2.7,3.7,67,0.00,,,0.00,VISReader,2013-12-29 09:23:00,
2013-12-29 02:28:00,43.0,33.9,29.98,SSE,157,3.7,5.3,70,0.00,,,0.00,VISReader,2013-12-29 09:28:00,
2013-12-29 02:33:00,43.7,31.1,29.98,NNW,337,2.7,6.3,61,0.00,,,0.00,VISReader,2013-12-29 09:33:00,
2013-12-29 02:39:00,43.9,32.9,29.98,South,180,2.7,6.3,65,0.00,,,0.00,VISReader,2013-12-29 09:39:00,
2013-12-29 02:44:00,41.9,33.2,29.98,SSE,157,3.7,3.7,71,0.00,,,0.00,VISReader,2013-12-29 09:44:00,
2013-12-29 02:49:00,42.6,33.2,29.98,ENE,67,4.7,5.8,69,0.00,,,0.00,VISReader,2013-12-29 09:49:00,
2013-12-29 02:54:00,43.9,30.1,29.98,North,360,3.2,6.3,58,0.00,,,0.00,VISReader,2013-12-29 09:54:00,
2013-12-29 02:59:00,44.4,27.9,29.98,NNW,337,3.7,6.3,52,0.00,,,0.00,VISReader,2013-12-29 09:59:00,
2013-12-29 03:04:00,44.8,27.3,29.98,NW,315,3.7,4.7,50,0.00,,,0.00,VISReader,2013-12-29 10:04:00,
2013-12-29 03:12:00,44.1,31.1,29.98,North,360,4.2,4.2,60,0.00,,,0.00,VISReader,2013-12-29 10:12:00,
2013-12-29 03:20:00,43.5,31.0,29.99,SSE,157,2.2,4.2,61,0.00,,,0.00,VISReader,2013-12-29 10:20:00,
2013-12-29 03:25:00,43.9,29.7,29.99,NE,45,2.2,3.7,57,0.00,,,0.00,VISReader,2013-12-29 10:25:00,
2013-12-29 03:30:00,44.2,29.5,29.99,North,360,3.2,3.7,56,0.00,,,0.00,VISReader,2013-12-29 10:30:00,
2013-12-29 03:35:00,44.2,29.5,29.99,WNW,292,3.2,4.2,56,0.00,,,0.00,VISReader,2013-12-29 10:35:00,
2013-12-29 03:40:00,44.2,28.2,29.99,NNW,337,5.3,5.3,53,0.00,,,0.00,VISReader,2013-12-29 10:40:00,
2013-12-29 03:47:00,45.7,25.1,29.99,NNW,337,4.2,5.3,44,0.00,,,0.00,VISReader,2013-12-29 10:47:00,
2013-12-29 03:52:00,47.1,24.6,29.98,North,360,7.3,7.3,41,0.00,,,0.00,VISReader,2013-12-29 10:52:00,
2013-12-29 03:57:00,48.4,24.6,29.98,North,360,5.8,7.3,39,0.00,,,0.00,VISReader,2013-12-29 10:57:00,
2013-12-29 04:02:00,48.7,24.9,29.98,SW,225,6.8,7.8,39,0.00,,,0.00,VISReader,2013-12-29 11:02:00,
2013-12-29 04:07:00,49.5,25.0,29.98,West,270,6.8,9.9,38,0.00,,,0.00,VISReader,2013-12-29 11:07:00,
2013-12-29 04:12:00,49.6,24.4,29.98,NNW,337,6.8,9.9,37,0.00,,,0.00,VISReader,2013-12-29 11:12:00,
2013-12-29 04:17:00,49.6,24.4,29.98,NNW,337,6.8,8.3,37,0.00,,,0.00,VISReader,2013-12-29 11:17:00,
2013-12-29 04:22:00,50.0,24.1,29.98,West,270,6.3,8.9,36,0.00,,,0.00,VISReader,2013-12-29 11:22:00,
2013-12-29 04:28:00,50.2,24.3,29.98,NE,45,6.8,9.9,36,0.00,,,0.00,VISReader,2013-12-29 11:28:00,
2013-12-29 04:33:00,50.9,24.2,29.98,WNW,292,7.8,10.4,35,0.00,,,0.00,VISReader,2013-12-29 11:33:00,
2013-12-29 04:38:00,51.1,24.4,29.98,East,90,8.3,10.4,35,0.00,,,0.00,VISReader,2013-12-29 11:38:00,
2013-12-29 04:43:00,51.1,23.7,29.98,NW,315,11.4,11.4,34,0.00,,,0.00,VISReader,2013-12-29 11:43:00,
2013-12-29 04:48:00,51.1,23.7,29.98,NE,45,6.8,12.5,34,0.00,,,0.00,VISReader,2013-12-29 11:48:00,
2013-12-29 04:53:00,51.1,23.7,29.98,NNW,337,8.3,12.5,34,0.00,,,0.00,VISReader,2013-12-29 11:53:00,
2013-12-29 04:58:00,50.9,23.5,29.98,NW,315,8.3,10.9,34,0.00,,,0.00,VISReader,2013-12-29 11:58:00,
2013-12-29 05:03:00,51.1,23.0,29.99,NNW,337,12.5,12.5,33,0.00,,,0.00,VISReader,2013-12-29 12:03:00,
2013-12-29 05:08:00,52.2,23.2,29.99,NW,315,15.0,17.6,32,0.00,,,0.00,VISReader,2013-12-29 12:08:00,
2013-12-29 05:13:00,52.2,23.2,29.99,WNW,292,11.9,17.6,32,0.00,,,0.00,VISReader,2013-12-29 12:13:00,
2013-12-29 05:18:00,52.2,22.5,29.99,NNW,337,13.0,18.6,31,0.00,,,0.00,VISReader,2013-12-29 12:18:00,
2013-12-29 05:24:00,52.0,22.3,29.99,NW,315,11.4,18.6,31,0.00,,,0.00,VISReader,2013-12-29 12:24:00,
2013-12-29 05:29:00,52.0,22.3,30.00,NNE,22,9.9,13.0,31,0.00,,,0.00,VISReader,2013-12-29 12:29:00,
2013-12-29 05:34:00,52.0,22.3,30.00,NNW,337,8.9,13.0,31,0.00,,,0.00,VISReader,2013-12-29 12:34:00,
2013-12-29 05:39:00,51.3,22.5,30.00,NNE,22,4.2,12.5,32,0.00,,,0.00,VISReader,2013-12-29 12:39:00,
2013-12-29 05:44:00,51.3,22.5,30.00,NNE,22,6.3,8.9,32,0.00,,,0.00,VISReader,2013-12-29 12:44:00,
2013-12-29 05:49:00,50.5,22.5,30.00,NNE,22,5.8,8.9,33,0.00,,,0.00,VISReader,2013-12-29 12:49:00,
2013-12-29 05:54:00,51.3,21.7,29.99,WNW,292,15.5,15.5,31,0.00,,,0.00,VISReader,2013-12-29 12:54:00,
2013-12-29 05:59:00,52.5,21.2,29.99,NW,315,16.1,19.1,29,0.00,,,0.00,VISReader,2013-12-29 12:59:00,
2013-12-29 06:05:00,52.5,21.2,29.99,WNW,292,15.5,21.2,29,0.00,,,0.00,VISReader,2013-12-29 13:05:00,
2013-12-29 06:11:00,52.5,21.2,29.99,NW,315,17.6,21.2,29,0.00,,,0.00,VISReader,2013-12-29 13:11:00,
2013-12-29 06:16:00,52.9,21.5,30.00,NW,315,11.4,17.6,29,0.00,,,0.00,VISReader,2013-12-29 13:16:00,
2013-12-29 06:21:00,52.5,21.2,30.00,NW,315,14.0,17.6,29,0.00,,,0.00,VISReader,2013-12-29 13:21:00,
2013-12-29 06:26:00,52.2,21.7,30.01,NW,315,13.5,16.1,30,0.00,,,0.00,VISReader,2013-12-29 13:26:00,
2013-12-29 06:31:00,52.2,21.7,30.01,NNW,337,8.9,16.1,30,0.00,,,0.00,VISReader,2013-12-29 13:31:00,
2013-12-29 06:36:00,51.1,22.3,30.01,WNW,292,6.3,14.0,32,0.00,,,0.00,VISReader,2013-12-29 13:36:00,
2013-12-29 06:42:00,50.7,21.9,30.02,North,360,5.3,10.4,32,0.00,,,0.00,VISReader,2013-12-29 13:42:00,
2013-12-29 06:47:00,50.5,21.8,30.02,NW,315,6.8,9.9,32,0.00,,,0.00,VISReader,2013-12-29 13:47:00,
2013-12-29 06:52:00,50.4,21.7,30.02,WNW,292,6.8,7.3,32,0.00,,,0.00,VISReader,2013-12-29 13:52:00,
2013-12-29 06:57:00,50.4,21.7,30.02,WNW,292,6.8,7.3,32,0.00,,,0.00,VISReader,2013-12-29 13:57:00,
2013-12-29 07:02:00,50.5,21.8,30.02,NNW,337,8.3,9.4,32,0.00,,,0.00,VISReader,2013-12-29 14:02:00,
2013-12-29 07:07:00,51.1,20.8,30.02,WNW,292,8.9,10.9,30,0.00,,,0.00,VISReader,2013-12-29 14:07:00,
2013-12-29 07:12:00,51.1,20.8,30.02,WNW,292,8.9,10.9,30,0.00,,,0.00,VISReader,2013-12-29 14:12:00,
2013-12-29 07:17:00,51.6,21.2,30.02,West,270,7.8,9.9,30,0.00,,,0.00,VISReader,2013-12-29 14:17:00,
2013-12-29 07:23:00,51.4,21.0,30.02,WNW,292,6.8,9.9,30,0.00,,,0.00,VISReader,2013-12-29 14:23:00,
2013-12-29 07:28:00,51.6,21.2,30.03,WNW,292,4.7,9.4,30,0.00,,,0.00,VISReader,2013-12-29 14:28:00,
2013-12-29 07:33:00,51.1,20.8,30.03,NW,315,2.2,8.9,30,0.00,,,0.00,VISReader,2013-12-29 14:33:00,
2013-12-29 07:38:00,50.9,20.6,30.03,WNW,292,3.2,4.7,30,0.00,,,0.00,VISReader,2013-12-29 14:38:00,
2013-12-29 07:43:00,50.7,21.2,30.03,WNW,292,5.8,5.8,31,0.00,,,0.00,VISReader,2013-12-29 14:43:00,
2013-12-29 07:48:00,50.7,20.4,30.03,NW,315,6.3,7.8,30,0.00,,,0.00,VISReader,2013-12-29 14:48:00,
2013-12-29 07:53:00,50.7,21.2,30.04,NE,45,3.7,7.8,31,0.00,,,0.00,VISReader,2013-12-29 14:53:00,
2013-12-29 07:58:00,50.5,21.0,30.04,NW,315,5.8,5.8,31,0.00,,,0.00,VISReader,2013-12-29 14:58:00,
2013-12-29 08:03:00,52.0,20.7,30.05,West,270,8.3,10.9,29,0.00,,,0.00,VISReader,2013-12-29 15:03:00,
2013-12-29 08:09:00,52.5,21.2,30.05,West,270,9.9,10.9,29,0.00,,,0.00,VISReader,2013-12-29 15:09:00,
2013-12-29 08:14:00,53.2,20.1,30.05,NW,315,8.3,11.4,27,0.00,,,0.00,VISReader,2013-12-29 15:14:00,
2013-12-29 08:19:00,53.8,20.6,30.05,NNW,337,8.3,12.5,27,0.00,,,0.00,VISReader,2013-12-29 15:19:00,
2013-12-29 08:24:00,54.1,20.9,30.05,NW,315,6.8,12.5,27,0.00,,,0.00,VISReader,2013-12-29 15:24:00,
2013-12-29 08:29:00,54.7,20.5,30.06,North,360,6.8,10.4,26,0.00,,,0.00,VISReader,2013-12-29 15:29:00,
2013-12-29 08:34:00,55.4,20.2,30.06,North,360,9.4,11.4,25,0.00,,,0.00,VISReader,2013-12-29 15:34:00,
2013-12-29 08:39:00,55.8,20.5,30.06,North,360,9.4,11.9,25,0.00,,,0.00,VISReader,2013-12-29 15:39:00,
2013-12-29 08:44:00,55.9,19.6,30.06,NNW,337,8.3,12.5,24,0.00,,,0.00,VISReader,2013-12-29 15:44:00,
2013-12-29 08:50:00,56.3,20.0,30.06,NE,45,7.8,12.5,24,0.00,,,0.00,VISReader,2013-12-29 15:50:00,
2013-12-29 08:55:00,56.3,20.0,30.07,NW,315,11.9,11.9,24,0.00,,,0.00,VISReader,2013-12-29 15:55:00,
2013-12-29 09:00:00,57.0,19.6,30.07,NW,315,11.4,13.0,23,0.00,,,0.00,VISReader,2013-12-29 16:00:00,
2013-12-29 09:05:00,57.4,18.9,30.08,WNW,292,10.9,18.1,22,0.00,,,0.00,VISReader,2013-12-29 16:05:00,
2013-12-29 09:10:00,57.9,18.2,30.08,NNW,337,9.9,18.1,21,0.00,,,0.00,VISReader,2013-12-29 16:10:00,
2013-12-29 09:15:00,58.3,18.6,30.08,NNW,337,10.4,16.6,21,0.00,,,0.00,VISReader,2013-12-29 16:15:00,
2013-12-29 09:20:00,58.3,18.6,30.08,NW,315,8.3,11.9,21,0.00,,,0.00,VISReader,2013-12-29 16:20:00,
2013-12-29 09:25:00,59.4,19.5,30.08,WNW,292,8.3,11.9,21,0.00,,,0.00,VISReader,2013-12-29 16:25:00,
2013-12-29 09:30:00,59.9,18.7,30.09,NNE,22,4.7,11.9,20,0.00,,,0.00,VISReader,2013-12-29 16:30:00,
2013-12-29 09:35:00,60.8,17.0,30.09,North,360,9.9,11.9,18,0.00,,,0.00,VISReader,2013-12-29 16:35:00,
2013-12-29 09:41:00,61.3,16.1,30.09,NW,315,11.9,11.9,17,0.00,,,0.00,VISReader,2013-12-29 16:41:00,
2013-12-29 09:46:00,61.9,15.2,30.09,NW,315,9.4,11.9,16,0.00,,,0.00,VISReader,2013-12-29 16:46:00,
2013-12-29 09:51:00,62.6,14.3,30.10,NNE,22,9.4,10.4,15,0.00,,,0.00,VISReader,2013-12-29 16:51:00,
2013-12-29 09:56:00,63.7,13.6,30.10,North,360,10.4,11.9,14,0.00,,,0.00,VISReader,2013-12-29 16:56:00,
2013-12-29 10:01:00,63.7,12.0,30.10,North,360,13.0,18.6,13,0.00,,,0.00,VISReader,2013-12-29 17:01:00,
2013-12-29 10:06:00,63.7,12.0,30.09,NNE,22,16.6,19.1,13,0.00,,,0.00,VISReader,2013-12-29 17:06:00,
2013-12-29 10:11:00,64.4,10.7,30.09,NNE,22,13.0,19.1,12,0.00,,,0.00,VISReader,2013-12-29 17:11:00,
2013-12-29 10:16:00,64.6,8.9,30.09,NW,315,13.5,18.1,11,0.00,,,0.00,VISReader,2013-12-29 17:16:00,
2013-12-29 10:24:00,64.8,7.0,30.09,NE,45,18.1,19.1,10,0.00,,,0.00,VISReader,2013-12-29 17:24:00,
2013-12-29 10:29:00,64.9,7.1,30.08,NE,45,18.1,23.3,10,0.00,,,0.00,VISReader,2013-12-29 17:29:00,
2013-12-29 10:34:00,65.5,7.5,30.08,North,360,10.4,23.3,10,0.00,,,0.00,VISReader,2013-12-29 17:34:00,
2013-12-29 10:39:00,66.0,7.9,30.10,NNE,22,10.9,16.6,10,0.00,,,0.00,VISReader,2013-12-29 17:39:00,
2013-12-29 10:44:00,66.4,5.9,30.10,North,360,14.5,16.1,9,0.00,,,0.00,VISReader,2013-12-29 17:44:00,
2013-12-29 10:50:00,65.7,5.4,30.10,ENE,67,11.9,15.0,9,0.00,,,0.00,VISReader,2013-12-29 17:50:00,
2013-12-29 10:55:00,66.2,3.2,30.10,NNW,337,17.6,23.3,8,0.00,,,0.00,VISReader,2013-12-29 17:55:00,
2013-12-29 11:00:00,66.6,3.5,30.10,NNE,22,18.1,23.3,8,0.00,,,0.00,VISReader,2013-12-29 18:00:00,
2013-12-29 11:05:00,65.8,2.9,30.09,North,360,18.1,24.3,8,0.00,,,0.00,VISReader,2013-12-29 18:05:00,
2013-12-29 11:10:00,66.7,0.7,30.09,NE,45,16.1,24.3,7,0.00,,,0.00,VISReader,2013-12-29 18:10:00,
2013-12-29 11:15:00,66.7,0.7,30.09,ENE,67,16.6,22.2,7,0.00,,,0.00,VISReader,2013-12-29 18:15:00,
2013-12-29 11:20:00,67.3,-2.1,30.09,NNE,22,17.1,22.2,6,0.00,,,0.00,VISReader,2013-12-29 18:20:00,
2013-12-29 11:25:00,67.1,-2.3,30.09,NNE,22,21.2,23.8,6,0.00,,,0.00,VISReader,2013-12-29 18:25:00,
2013-12-29 11:34:00,67.6,-1.9,30.09,North,360,19.1,26.9,6,0.00,,,0.00,VISReader,2013-12-29 18:34:00,
2013-12-29 11:39:00,67.5,-2.0,30.09,NW,315,17.6,22.2,6,0.00,,,0.00,VISReader,2013-12-29 18:39:00,
2013-12-29 11:44:00,67.8,1.5,30.09,NNE,22,13.0,22.2,7,0.00,,,0.00,VISReader,2013-12-29 18:44:00,
2013-12-29 11:50:00,68.5,2.0,30.10,NNE,22,11.4,15.5,7,0.00,,,0.00,VISReader,2013-12-29 18:50:00,
2013-12-29 11:55:00,68.2,-1.5,30.10,NNE,22,14.5,16.6,6,0.00,,,0.00,VISReader,2013-12-29 18:55:00,
2013-12-29 12:00:00,68.5,-1.3,30.10,NNE,22,17.1,17.1,6,0.00,,,0.00,VISReader,2013-12-29 19:00:00,
2013-12-29 12:05:00,68.2,-1.5,30.10,North,360,14.0,22.2,6,0.00,,,0.00,VISReader,2013-12-29 19:05:00,
2013-12-29 12:10:00,68.9,-4.8,30.10,North,360,10.9,22.2,5,0.00,,,0.00,VISReader,2013-12-29 19:10:00,
2013-12-29 12:15:00,69.4,-4.4,30.10,NNE,22,19.1,20.2,5,0.00,,,0.00,VISReader,2013-12-29 19:15:00,
2013-12-29 12:20:00,68.9,-9.3,30.10,NNE,22,20.2,25.8,4,0.00,,,0.00,VISReader,2013-12-29 19:20:00,
2013-12-29 12:25:00,69.1,-9.2,30.10,ENE,67,14.0,25.8,4,0.00,,,0.00,VISReader,2013-12-29 19:25:00,
2013-12-29 12:30:00,69.1,-9.2,30.09,ENE,67,12.5,21.2,4,0.00,,,0.00,VISReader,2013-12-29 19:30:00,
2013-12-29 12:36:00,68.9,-15.1,30.09,NNE,22,13.5,21.7,3,0.00,,,0.00,VISReader,2013-12-29 19:36:00,
2013-12-29 12:41:00,69.4,-14.7,30.09,NE,45,17.6,23.3,3,0.00,,,0.00,VISReader,2013-12-29 19:41:00,
2013-12-29 12:46:00,69.3,-14.8,30.09,NW,315,15.5,23.3,3,0.00,,,0.00,VISReader,2013-12-29 19:46:00,
2013-12-29 12:51:00,70.0,-14.3,30.09,NNE,22,23.3,23.3,3,0.00,,,0.00,VISReader,2013-12-29 19:51:00,
2013-12-29 12:56:00,69.1,-22.7,30.09,NNE,22,28.9,31.0,2,0.00,,,0.00,VISReader,2013-12-29 19:56:00,
2013-12-29 13:01:00,69.4,-22.5,30.09,North,360,23.8,31.0,2,0.00,,,0.00,VISReader,2013-12-29 20:01:00,
2013-12-29 13:06:00,68.9,-22.9,30.08,NNE,22,21.7,31.0,2,0.00,,,0.00,VISReader,2013-12-29 20:06:00,
2013-12-29 13:11:00,68.9,-22.9,30.08,NE,45,24.3,31.0,2,0.00,,,0.00,VISReader,2013-12-29 20:11:00,
2013-12-29 13:17:00,69.4,-22.5,30.08,NNE,22,19.7,28.4,2,0.00,,,0.00,VISReader,2013-12-29 20:17:00,
2013-12-29 13:22:00,69.4,-22.5,30.08,NE,45,16.1,26.9,2,0.00,,,0.00,VISReader,2013-12-29 20:22:00,
2013-12-29 13:27:00,70.0,-34.8,30.07,NE,45,14.0,22.2,1,0.00,,,0.00,VISReader,2013-12-29 20:27:00,
2013-12-29 13:32:00,69.8,-34.9,30.07,NW,315,13.5,22.2,1,0.00,,,0.00,VISReader,2013-12-29 20:32:00,
2013-12-29 13:37:00,70.0,-34.8,30.07,NNE,22,17.1,25.3,1,0.00,,,0.00,VISReader,2013-12-29 20:37:00,
2013-12-29 13:42:00,70.2,-34.7,30.07,WNW,292,21.7,25.3,1,0.00,,,0.00,VISReader,2013-12-29 20:42:00,
2013-12-29 13:47:00,70.0,-34.8,30.07,NE,45,20.7,22.7,1,0.00,,,0.00,VISReader,2013-12-29 20:47:00,
2013-12-29 13:52:00,71.6,-33.9,30.07,North,360,18.6,20.7,1,0.00,,,0.00,VISReader,2013-12-29 20:52:00,
2013-12-29 13:57:00,70.2,-34.7,30.07,North,360,17.6,22.7,1,0.00,,,0.00,VISReader,2013-12-29 20:57:00,
2013-12-29 14:03:00,70.2,-34.7,30.07,NNW,337,11.9,27.4,1,0.00,,,0.00,VISReader,2013-12-29 21:03:00,
2013-12-29 14:08:00,70.3,-34.6,30.07,NNE,22,15.0,27.4,1,0.00,,,0.00,VISReader,2013-12-29 21:08:00,
2013-12-29 14:13:00,70.3,-34.6,30.07,NNE,22,14.0,23.3,1,0.00,,,0.00,VISReader,2013-12-29 21:13:00,
2013-12-29 14:19:00,70.3,-34.6,30.07,North,360,14.5,21.2,1,0.00,,,0.00,VISReader,2013-12-29 21:19:00,
2013-12-29 14:24:00,70.3,-34.6,30.07,East,90,16.1,23.8,1,0.00,,,0.00,VISReader,2013-12-29 21:24:00,
2013-12-29 14:29:00,70.3,-34.6,30.07,East,90,18.6,23.8,1,0.00,,,0.00,VISReader,2013-12-29 21:29:00,
2013-12-29 14:37:00,70.3,-34.6,30.07,NW,315,17.1,23.8,1,0.00,,,0.00,VISReader,2013-12-29 21:37:00,
2013-12-29 14:42:00,70.3,-34.6,30.07,ENE,67,16.6,17.1,1,0.00,,,0.00,VISReader,2013-12-29 21:42:00,
2013-12-29 14:47:00,70.3,-34.6,30.07,WNW,292,15.0,17.6,1,0.00,,,0.00,VISReader,2013-12-29 21:47:00,
2013-12-29 14:53:00,70.3,-34.6,30.07,NNW,337,16.6,21.2,1,0.00,,,0.00,VISReader,2013-12-29 21:53:00,
2013-12-29 14:58:00,70.3,-34.6,30.07,NW,315,15.5,21.2,1,0.00,,,0.00,VISReader,2013-12-29 21:58:00,
2013-12-29 15:03:00,70.3,-34.6,30.07,NNE,22,14.0,20.2,1,0.00,,,0.00,VISReader,2013-12-29 22:03:00,
2013-12-29 20:38:00,58.6,0.0,30.15,WNW,292,6.8,6.8,9,0.00,,,0.00,VISReader,2013-12-30 03:38:00,
2013-12-29 20:39:00,58.6,0.0,30.15,WNW,292,7.3,7.3,9,0.00,,,0.00,VISReader,2013-12-30 03:39:00,
2013-12-29 20:44:00,58.5,-0.1,30.15,NNW,337,9.9,9.9,9,0.00,,,0.00,VISReader,2013-12-30 03:44:00,
2013-12-29 20:49:00,58.3,-0.2,30.15,NW,315,7.8,9.9,9,0.00,,,0.00,VISReader,2013-12-30 03:49:00,
2013-12-29 20:54:00,57.9,-0.6,30.15,ESE,112,7.8,9.4,9,0.00,,,0.00,VISReader,2013-12-30 03:54:00,
2013-12-29 20:59:00,57.9,-0.6,30.15,WNW,292,6.8,9.9,9,0.00,,,0.00,VISReader,2013-12-30 03:59:00,
2013-12-29 21:04:00,58.1,-0.4,30.15,North,360,9.4,11.4,9,0.00,,,0.00,VISReader,2013-12-30 04:04:00,
2013-12-29 21:09:00,58.6,-2.5,30.15,NNW,337,10.4,11.9,8,0.00,,,0.00,VISReader,2013-12-30 04:09:00,
2013-12-29 21:14:00,59.4,-1.9,30.15,NNW,337,14.0,15.0,8,0.00,,,0.00,VISReader,2013-12-30 04:14:00,
2013-12-29 21:20:00,59.7,-1.7,30.15,NW,315,11.9,17.1,8,0.00,,,0.00,VISReader,2013-12-30 04:20:00,
2013-12-29 21:25:00,61.9,0.0,30.15,West,270,10.4,17.1,8,0.00,,,0.00,VISReader,2013-12-30 04:25:00,
2013-12-29 21:30:00,58.8,-2.4,30.15,NNW,337,10.4,15.0,8,0.00,,,0.00,VISReader,2013-12-30 04:30:00,
2013-12-29 21:37:00,58.5,-2.6,30.15,NNW,337,12.5,12.5,8,0.00,,,0.00,VISReader,2013-12-30 04:37:00,
2013-12-29 21:44:00,58.5,-2.6,30.15,NNW,337,11.4,12.5,8,0.00,,,0.00,VISReader,2013-12-30 04:44:00,
2013-12-29 21:49:00,58.5,-2.6,30.15,NW,315,12.5,15.0,8,0.00,,,0.00,VISReader,2013-12-30 04:49:00,
2013-12-29 21:54:00,58.5,-2.6,30.15,NW,315,9.4,15.0,8,0.00,,,0.00,VISReader,2013-12-30 04:54:00,
2013-12-29 21:59:00,58.3,-2.7,30.15,WNW,292,10.4,14.0,8,0.00,,,0.00,VISReader,2013-12-30 04:59:00,
2013-12-29 22:01:00,58.3,-2.7,30.15,NNW,337,10.9,13.0,8,0.00,,,0.00,VISReader,2013-12-30 05:01:00,
2013-12-29 22:02:00,58.3,-2.7,30.15,NNW,337,9.9,12.5,8,0.00,,,0.00,VISReader,2013-12-30 05:02:00,
2013-12-29 22:03:00,58.3,-2.7,30.16,NNW,337,8.3,12.5,8,0.00,,,0.00,VISReader,2013-12-30 05:03:00,
2013-12-29 22:08:00,58.1,-2.9,30.16,NNW,337,9.4,12.5,8,0.00,,,0.00,VISReader,2013-12-30 05:08:00,
2013-12-29 22:14:00,57.9,-3.0,30.16,West,270,9.9,10.9,8,0.00,,,0.00,VISReader,2013-12-30 05:14:00,
2013-12-29 22:19:00,57.7,-3.2,30.16,WNW,292,8.9,13.5,8,0.00,,,0.00,VISReader,2013-12-30 05:19:00,
2013-12-29 22:26:00,57.6,-3.3,30.16,WNW,292,8.9,11.9,8,0.00,,,0.00,VISReader,2013-12-30 05:26:00,
2013-12-29 22:31:00,57.7,-3.2,30.16,West,270,10.9,15.0,8,0.00,,,0.00,VISReader,2013-12-30 05:31:00,
2013-12-29 22:37:00,57.7,-3.2,30.16,NNW,337,8.3,15.0,8,0.00,,,0.00,VISReader,2013-12-30 05:37:00,
2013-12-29 22:43:00,57.7,-3.2,30.16,NW,315,10.9,12.5,8,0.00,,,0.00,VISReader,2013-12-30 05:43:00,
2013-12-29 22:48:00,58.1,-2.9,30.16,North,360,13.5,16.6,8,0.00,,,0.00,VISReader,2013-12-30 05:48:00,
2013-12-29 22:53:00,58.1,-2.9,30.16,NNW,337,11.4,16.6,8,0.00,,,0.00,VISReader,2013-12-30 05:53:00,
2013-12-29 22:59:00,57.9,-3.0,30.16,NW,315,7.3,14.0,8,0.00,,,0.00,VISReader,2013-12-30 05:59:00,
2013-12-29 23:04:00,57.6,-3.3,30.17,NW,315,9.9,10.9,8,0.00,,,0.00,VISReader,2013-12-30 06:04:00,
2013-12-29 23:09:00,57.6,-3.3,30.17,NW,315,8.9,11.4,8,0.00,,,0.00,VISReader,2013-12-30 06:09:00,
2013-12-29 23:14:00,57.6,-3.3,30.17,North,360,8.9,14.0,8,0.00,,,0.00,VISReader,2013-12-30 06:14:00,
2013-12-29 23:19:00,57.7,-3.2,30.17,North,360,10.4,14.0,8,0.00,,,0.00,VISReader,2013-12-30 06:19:00,
2013-12-29 23:24:00,57.7,-5.9,30.17,WNW,292,15.0,15.5,7,0.00,,,0.00,VISReader,2013-12-30 06:24:00,
2013-12-29 23:29:00,58.1,-5.6,30.17,NW,315,15.0,15.5,7,0.00,,,0.00,VISReader,2013-12-30 06:29:00,
2013-12-29 23:38:00,58.3,-5.5,30.17,WNW,292,14.5,16.1,7,0.00,,,0.00,VISReader,2013-12-30 06:38:00,
2013-12-29 23:43:00,58.3,-5.5,30.17,NW,315,15.5,17.1,7,0.00,,,0.00,VISReader,2013-12-30 06:43:00,
2013-12-29 23:49:00,58.5,-5.4,30.17,NW,315,14.0,19.1,7,0.00,,,0.00,VISReader,2013-12-30 06:49:00,
2013-12-29 23:54:00,58.5,-5.4,30.17,WNW,292,13.0,19.1,7,0.00,,,0.00,VISReader,2013-12-30 06:54:00,
2013-12-29 23:59:00,58.3,-5.5,30.17,WNW,292,15.5,18.1,7,0.00,,,0.00,VISReader,2013-12-30 06:59:00,